Time,TemperatureF,DewpointF,PressureIn,WindDirection,WindDirectionDegrees,WindSpeedMPH,WindSpeedGustMPH,Humidity,HourlyPrecipIn,Conditions,Clouds,dailyrainin,SoftwareType,DateUTC
2013-11-27 00:00:00,47.2,37.0,30.13,WNW,302,1.0,4.0,67,0.00,,,0.00,weatherlink.com 1.10,2013-11-27 08:00:00,
2013-11-27 00:16:00,47.4,37.0,30.13,NNW,336,1.0,4.0,67,0.00,,,0.00,weatherlink.com 1.10,2013-11-27 08:16:00,
2013-11-27 00:31:00,47.5,37.0,30.13,North,9,1.0,4.0,68,0.00,,,0.00,weatherlink.com 1.10,2013-11-27 08:31:00,
2013-11-27 00:46:00,47.9,37.0,30.12,West,278,1.0,5.0,66,0.00,,,0.00,weatherlink.com 1.10,2013-11-27 08:46:00,
2013-11-27 01:01:00,48.1,37.0,30.12,WNW,296,1.0,5.0,66,0.00,,,0.00,weatherlink.com 1.10,2013-11-27 09:01:00,
2013-11-27 01:16:00,48.4,38.0,30.12,WNW,285,2.0,4.0,68,0.00,,,0.00,weatherlink.com 1.10,2013-11-27 09:16:00,
2013-11-27 01:31:00,48.8,38.0,30.12,WNW,285,2.0,3.0,67,0.00,,,0.00,weatherlink.com 1.10,2013-11-27 09:31:00,
2013-11-27 01:46:00,49.0,37.0,30.12,NW,319,2.0,6.0,64,0.00,,,0.00,weatherlink.com 1.10,2013-11-27 09:46:00,
2013-11-27 02:01:00,49.3,37.0,30.12,WNW,301,4.0,7.0,63,0.00,,,0.00,weatherlink.com 1.10,2013-11-27 10:01:00,
2013-11-27 02:16:00,49.4,37.0,30.12,NW,313,3.0,6.0,63,0.00,,,0.00,weatherlink.com 1.10,2013-11-27 10:16:00,
2013-11-27 02:31:00,49.5,38.0,30.12,WNW,290,0.0,7.0,64,0.00,,,0.00,weatherlink.com 1.10,2013-11-27 10:31:00,
2013-11-27 02:46:00,49.0,38.0,30.11,WNW,294,1.0,3.0,66,0.00,,,0.00,weatherlink.com 1.10,2013-11-27 10:46:00,
2013-11-27 03:01:00,48.5,38.0,30.11,North,5,0.0,7.0,66,0.00,,,0.00,weatherlink.com 1.10,2013-11-27 11:01:00,
2013-11-27 03:16:00,48.7,38.0,30.10,NNW,327,3.0,6.0,66,0.00,,,0.00,weatherlink.com 1.10,2013-11-27 11:16:00,
2013-11-27 03:31:00,48.9,38.0,30.09,WNW,298,4.0,7.0,66,0.00,,,0.00,weatherlink.com 1.10,2013-11-27 11:31:00,
2013-11-27 03:46:00,49.1,38.0,30.08,NW,311,2.0,11.0,66,0.00,,,0.00,weatherlink.com 1.10,2013-11-27 11:46:00,
2013-11-27 04:01:00,49.2,38.0,30.09,WSW,248,3.0,11.0,66,0.00,,,0.00,weatherlink.com 1.10,2013-11-27 12:01:00,
2013-11-27 04:16:00,48.4,39.0,30.10,SSW,198,0.0,3.0,69,0.00,,,0.00,weatherlink.com 1.10,2013-11-27 12:16:00,
2013-11-27 04:31:00,46.7,39.0,30.10,SSE,155,0.0,3.0,74,0.00,,,0.00,weatherlink.com 1.10,2013-11-27 12:31:00,
2013-11-27 04:46:00,45.8,39.0,30.09,ESE,110,0.0,2.0,76,0.00,,,0.00,weatherlink.com 1.10,2013-11-27 12:46:00,
2013-11-27 05:01:00,45.3,39.0,30.08,ESE,109,0.0,1.0,77,0.00,,,0.00,weatherlink.com 1.10,2013-11-27 13:01:00,
2013-11-27 05:16:00,44.9,38.0,30.08,WNW,298,3.0,5.0,78,0.00,,,0.00,weatherlink.com 1.10,2013-11-27 13:16:00,
2013-11-27 05:31:00,46.7,39.0,30.07,WNW,287,2.0,6.0,74,0.00,,,0.00,weatherlink.com 1.10,2013-11-27 13:31:00,
2013-11-27 05:46:00,48.0,40.0,30.07,NW,323,4.0,11.0,73,0.00,,,0.00,weatherlink.com 1.10,2013-11-27 13:46:00,
2013-11-27 06:01:00,48.6,40.0,30.07,West,281,1.0,8.0,72,0.00,,,0.00,weatherlink.com 1.10,2013-11-27 14:01:00,
2013-11-27 06:16:00,48.0,40.0,30.08,West,281,1.0,4.0,73,0.00,,,0.00,weatherlink.com 1.10,2013-11-27 14:16:00,
2013-11-27 06:31:00,46.9,39.0,30.07,West,281,0.0,1.0,75,0.00,,,0.00,weatherlink.com 1.10,2013-11-27 14:31:00,
2013-11-27 06:46:00,45.5,39.0,30.07,NNW,345,1.0,2.0,77,0.00,,,0.00,weatherlink.com 1.10,2013-11-27 14:46:00,
2013-11-27 07:01:00,44.7,39.0,30.07,NNW,345,0.0,1.0,79,0.00,,,0.00,weatherlink.com 1.10,2013-11-27 15:01:00,
2013-11-27 07:16:00,44.2,38.0,30.07,NNW,345,0.0,2.0,80,0.00,,,0.00,weatherlink.com 1.10,2013-11-27 15:16:00,
2013-11-27 07:31:00,43.9,38.0,30.07,ENE,65,1.0,2.0,79,0.00,,,0.00,weatherlink.com 1.10,2013-11-27 15:31:00,
2013-11-27 07:47:00,44.0,38.0,30.07,ENE,65,0.0,1.0,79,0.00,,,0.00,weatherlink.com 1.10,2013-11-27 15:47:00,
2013-11-27 08:02:00,44.1,39.0,30.07,ENE,65,0.0,2.0,81,0.00,,,0.00,weatherlink.com 1.10,2013-11-27 16:02:00,
2013-11-27 08:17:00,44.2,39.0,30.07,ENE,65,0.0,2.0,81,0.00,,,0.00,weatherlink.com 1.10,2013-11-27 16:17:00,
2013-11-27 08:32:00,44.3,39.0,30.07,ENE,65,0.0,0.0,81,0.00,,,0.00,weatherlink.com 1.10,2013-11-27 16:32:00,
2013-11-27 08:47:00,44.6,39.0,30.07,ENE,65,0.0,0.0,80,0.00,,,0.00,weatherlink.com 1.10,2013-11-27 16:47:00,
2013-11-27 09:02:00,44.9,38.0,30.06,ENE,65,0.0,1.0,77,0.00,,,0.00,weatherlink.com 1.10,2013-11-27 17:02:00,
2013-11-27 09:17:00,45.6,38.0,30.07,ENE,65,0.0,1.0,76,0.00,,,0.00,weatherlink.com 1.10,2013-11-27 17:17:00,
2013-11-27 09:32:00,46.6,39.0,30.06,ENE,67,0.0,2.0,75,0.00,,,0.00,weatherlink.com 1.10,2013-11-27 17:32:00,
2013-11-27 09:47:00,47.5,41.0,30.05,South,173,0.0,2.0,77,0.00,,,0.00,weatherlink.com 1.10,2013-11-27 17:47:00,
2013-11-27 10:02:00,48.2,41.0,30.05,SSW,198,1.0,4.0,76,0.00,,,0.00,weatherlink.com 1.10,2013-11-27 18:02:00,
2013-11-27 10:17:00,48.3,40.0,30.05,SSW,198,0.0,3.0,74,0.00,,,0.00,weatherlink.com 1.10,2013-11-27 18:17:00,
2013-11-27 10:32:00,48.1,41.0,30.05,SSW,198,0.0,2.0,75,0.00,,,0.00,weatherlink.com 1.10,2013-11-27 18:32:00,
2013-11-27 10:47:00,48.0,40.0,30.04,SSW,198,0.0,1.0,75,0.00,,,0.00,weatherlink.com 1.10,2013-11-27 18:47:00,
2013-11-27 11:02:00,48.2,41.0,30.05,SSW,198,0.0,0.0,76,0.00,,,0.00,weatherlink.com 1.10,2013-11-27 19:02:00,
2013-11-27 11:17:00,48.4,41.0,30.05,SSW,198,1.0,2.0,76,0.00,,,0.00,weatherlink.com 1.10,2013-11-27 19:17:00,
2013-11-27 11:32:00,48.5,42.0,30.04,WNW,292,0.0,2.0,77,0.00,,,0.00,weatherlink.com 1.10,2013-11-27 19:32:00,
2013-11-27 11:47:00,49.0,40.0,30.03,WNW,292,0.0,2.0,71,0.00,,,0.00,weatherlink.com 1.10,2013-11-27 19:47:00,
2013-11-27 12:02:00,49.6,41.0,30.02,WNW,292,0.0,2.0,72,0.00,,,0.00,weatherlink.com 1.10,2013-11-27 20:02:00,
2013-11-27 12:17:00,50.3,42.0,30.02,SSW,204,0.0,3.0,73,0.00,,,0.00,weatherlink.com 1.10,2013-11-27 20:17:00,
2013-11-27 12:32:00,50.3,41.0,30.01,SW,215,1.0,3.0,70,0.00,,,0.00,weatherlink.com 1.10,2013-11-27 20:32:00,
2013-11-27 12:47:00,50.6,41.0,30.01,SSW,201,3.0,3.0,70,0.00,,,0.00,weatherlink.com 1.10,2013-11-27 20:47:00,
2013-11-27 13:02:00,50.8,42.0,30.01,SSW,193,0.0,4.0,72,0.00,,,0.00,weatherlink.com 1.10,2013-11-27 21:02:00,
2013-11-27 13:17:00,50.9,42.0,30.00,SSW,194,0.0,1.0,71,0.00,,,0.00,weatherlink.com 1.10,2013-11-27 21:17:00,
2013-11-27 13:32:00,51.3,42.0,30.00,WNW,283,0.0,2.0,71,0.00,,,0.00,weatherlink.com 1.10,2013-11-27 21:32:00,
2013-11-27 13:47:00,51.8,43.0,29.99,WNW,283,0.0,2.0,71,0.00,,,0.00,weatherlink.com 1.10,2013-11-27 21:47:00,
2013-11-27 14:02:00,51.8,43.0,29.99,WNW,283,0.0,2.0,71,0.00,,,0.00,weatherlink.com 1.10,2013-11-27 22:02:00,
2013-11-27 14:17:00,51.3,42.0,29.99,WNW,282,0.0,2.0,71,0.00,,,0.00,weatherlink.com 1.10,2013-11-27 22:17:00,
2013-11-27 14:32:00,50.8,42.0,29.99,WNW,282,0.0,2.0,71,0.00,,,0.00,weatherlink.com 1.10,2013-11-27 22:32:00,
2013-11-27 14:47:00,50.4,42.0,29.99,WNW,282,0.0,1.0,72,0.00,,,0.00,weatherlink.com 1.10,2013-11-27 22:47:00,
2013-11-27 15:02:00,49.9,41.0,29.99,SSW,205,0.0,3.0,72,0.00,,,0.00,weatherlink.com 1.10,2013-11-27 23:02:00,
2013-11-27 15:17:00,49.6,41.0,29.99,SSW,205,0.0,0.0,73,0.00,,,0.00,weatherlink.com 1.10,2013-11-27 23:17:00,
2013-11-27 15:32:00,49.4,42.0,29.99,SSW,205,0.0,0.0,75,0.00,,,0.00,weatherlink.com 1.10,2013-11-27 23:32:00,
2013-11-27 15:47:00,49.1,42.0,29.99,SSW,205,0.0,0.0,76,0.00,,,0.00,weatherlink.com 1.10,2013-11-27 23:47:00,
2013-11-27 16:02:00,49.0,42.0,29.99,SSW,205,0.0,0.0,78,0.00,,,0.00,weatherlink.com 1.10,2013-11-28 00:02:00,
2013-11-27 16:17:00,48.9,44.0,29.99,SSW,205,0.0,0.0,82,0.00,,,0.00,weatherlink.com 1.10,2013-11-28 00:17:00,
2013-11-27 16:32:00,48.7,44.0,29.99,SSW,205,0.0,1.0,85,0.00,,,0.00,weatherlink.com 1.10,2013-11-28 00:32:00,
2013-11-27 16:47:00,48.5,44.0,29.99,SSW,205,0.0,0.0,84,0.00,,,0.00,weatherlink.com 1.10,2013-11-28 00:47:00,
2013-11-27 17:03:00,48.1,43.0,30.00,SSW,205,0.0,0.0,83,0.00,,,0.00,weatherlink.com 1.10,2013-11-28 01:03:00,
2013-11-27 17:17:00,47.7,43.0,30.01,SSW,205,0.0,1.0,83,0.00,,,0.00,weatherlink.com 1.10,2013-11-28 01:17:00,
2013-11-27 17:32:00,47.4,43.0,30.00,SSW,205,0.0,0.0,84,0.00,,,0.00,weatherlink.com 1.10,2013-11-28 01:32:00,
2013-11-27 17:47:00,47.1,43.0,30.01,SSW,205,0.0,0.0,84,0.00,,,0.00,weatherlink.com 1.10,2013-11-28 01:47:00,
2013-11-27 18:02:00,47.0,43.0,30.01,SSW,205,0.0,0.0,86,0.00,,,0.00,weatherlink.com 1.10,2013-11-28 02:02:00,
2013-11-27 18:17:00,46.9,43.0,30.01,SSW,205,0.0,2.0,86,0.00,,,0.00,weatherlink.com 1.10,2013-11-28 02:17:00,
2013-11-27 18:33:00,46.9,43.0,30.01,SSW,205,1.0,1.0,87,0.00,,,0.00,weatherlink.com 1.10,2013-11-28 02:33:00,
2013-11-27 18:48:00,46.9,43.0,30.01,WSW,250,1.0,2.0,87,0.00,,,0.00,weatherlink.com 1.10,2013-11-28 02:48:00,
2013-11-27 19:03:00,46.9,44.0,30.01,NNW,329,0.0,1.0,88,0.00,,,0.00,weatherlink.com 1.10,2013-11-28 03:03:00,
2013-11-27 19:18:00,46.9,44.0,30.01,NNW,329,0.0,1.0,88,0.00,,,0.00,weatherlink.com 1.10,2013-11-28 03:18:00,
2013-11-27 19:33:00,46.9,44.0,30.01,NNW,329,1.0,1.0,89,0.00,,,0.00,weatherlink.com 1.10,2013-11-28 03:33:00,
2013-11-27 19:48:00,46.9,44.0,30.01,NNW,329,1.0,2.0,89,0.00,,,0.00,weatherlink.com 1.10,2013-11-28 03:48:00,
2013-11-27 20:03:00,46.8,44.0,30.01,NNW,329,0.0,1.0,89,0.00,,,0.00,weatherlink.com 1.10,2013-11-28 04:03:00,
2013-11-27 20:18:00,46.7,44.0,30.01,NNW,329,1.0,1.0,89,0.00,,,0.00,weatherlink.com 1.10,2013-11-28 04:18:00,
2013-11-27 20:33:00,46.4,43.0,30.02,NNW,329,1.0,1.0,89,0.00,,,0.00,weatherlink.com 1.10,2013-11-28 04:33:00,
2013-11-27 20:48:00,46.1,43.0,30.02,NNW,329,0.0,2.0,90,0.00,,,0.00,weatherlink.com 1.10,2013-11-28 04:48:00,
2013-11-27 21:03:00,46.1,43.0,30.02,NNW,336,1.0,2.0,89,0.00,,,0.00,weatherlink.com 1.10,2013-11-28 05:03:00,
2013-11-27 21:18:00,46.0,43.0,30.02,NNW,336,1.0,2.0,89,0.00,,,0.00,weatherlink.com 1.10,2013-11-28 05:18:00,
2013-11-27 21:33:00,45.9,43.0,30.02,NNW,336,1.0,2.0,89,0.00,,,0.00,weatherlink.com 1.10,2013-11-28 05:33:00,
2013-11-27 21:48:00,45.8,43.0,30.02,NNW,336,0.0,2.0,89,0.00,,,0.00,weatherlink.com 1.10,2013-11-28 05:48:00,
2013-11-27 22:03:00,45.7,43.0,30.02,NNW,336,0.0,2.0,90,0.00,,,0.00,weatherlink.com 1.10,2013-11-28 06:03:00,
2013-11-27 22:18:00,45.8,43.0,30.02,NNW,336,0.0,1.0,90,0.00,,,0.00,weatherlink.com 1.10,2013-11-28 06:18:00,
2013-11-27 22:33:00,45.7,43.0,30.03,NNW,336,1.0,3.0,90,0.00,,,0.00,weatherlink.com 1.10,2013-11-28 06:33:00,
2013-11-27 22:48:00,45.8,44.0,30.04,WNW,302,0.0,7.0,92,0.00,,,0.00,weatherlink.com 1.10,2013-11-28 06:48:00,
2013-11-27 23:03:00,46.2,44.0,30.04,NW,317,0.0,1.0,91,0.00,,,0.00,weatherlink.com 1.10,2013-11-28 07:03:00,
2013-11-27 23:18:00,45.4,42.0,30.04,NW,317,0.0,1.0,89,0.00,,,0.00,weatherlink.com 1.10,2013-11-28 07:18:00,
2013-11-27 23:33:00,44.9,43.0,30.04,NNW,344,1.0,3.0,91,0.00,,,0.00,weatherlink.com 1.10,2013-11-28 07:33:00,
2013-11-27 23:48:00,44.6,43.0,30.04,NNW,344,0.0,2.0,92,0.00,,,0.00,weatherlink.com 1.10,2013-11-28 07:48:00,